Flag for Germany Weather past 2 weeks in Gaggenau, Baden-Württemberg, Germany

Now
64 °F

Clear.


Feels Like: 64 °F
Forecast: 53 / 83 °F
Wind: 5 mph from Southwest

Location: Karlsruhe - Baden Wurttemberg

Current Time: Jun 3, 2015 at 3:57:52 AM

Latest Report: Jun 3, 2015 at 12:50 AM


Visibility: 10 mi

Pressure: 30.07 "Hg

Humidity: 56%

Dew point: 48 °F

Location of GaggenauLocation

Historic Weather in Gaggenau — Graph

°F

Gaggenau temperature yesterday

Maximum temperature yesterday: 81 °F (at 4:20 PM)
Minimum temperature yesterday: 54 °F (at 4:50 AM)
Average temperature yesterday: 71 °F

Past Weeks' High & Low Weather Summary

 TemperatureHumidityPressure
High81 °F (Jun 2, 4:20 PM)100% (May 31, 10:20 PM)30.33 "Hg (May 31, 10:20 PM)
Low39 °F (May 22, 4:50 AM)26% (May 22, 4:50 PM)29.74 "Hg (May 19, 4:50 AM)
Average59 °F60%30.05 "Hg
* Reported May 19 4:50 AM — Jun 3 12:50 AM, Gaggenau, Weather by CustomWeather, © 2015

Note: Actual official high and low records may vary slightly from our data, if they occured in-between our weather recording intervals... More about our weather records

Advertising

Gaggenau weather history for previous 24 hours

 ConditionsComfort  
Time TempWeatherWind HumidityBarometerVisibility
12:50 AM
Wed, Jun 3
64 °FClear.5 mph56%30.07 "Hg10 mi
11:50 PM
Tue, Jun 2
66 °FClear.6 mph52%30.07 "Hg10 mi
10:50 PM66 °FClear.6 mph52%30.04 "Hg10 mi
10:20 PM68 °FSunny.6 mph49%30.04 "Hg10 mi
9:50 PM70 °FPassing clouds.6 mph50%30.04 "HgN/A
9:20 PM70 °FSunny.9 mph46%30.04 "Hg10 mi
8:50 PM75 °FSunny.7 mph39%30.04 "Hg10 mi
8:20 PM77 °FPassing clouds.6 mph32%30.04 "HgN/A
7:50 PM79 °FPassing clouds.6 mph32%30.04 "HgN/A
7:20 PM79 °FSunny.7 mph30%30.01 "Hg10 mi
6:50 PM81 °FPassing clouds.9 mph28%30.01 "HgN/A
6:20 PM81 °FPassing clouds.8 mph30%30.01 "HgN/A
5:50 PM81 °FSunny.15 mph26%30.01 "Hg10 mi
5:20 PM81 °FPassing clouds.14 mph26%30.01 "HgN/A
4:50 PM81 °FPassing clouds.10 mph26%30.04 "HgN/A
4:20 PM81 °FPassing clouds.10 mph28%30.04 "HgN/A
3:50 PM79 °FPassing clouds.10 mph30%30.04 "HgN/A
3:20 PM79 °FPassing clouds.15 mph30%30.04 "HgN/A
2:50 PM79 °FSunny.16 mph32%30.04 "Hg10 mi
2:20 PM75 °FPassing clouds.10 mph34%30.04 "HgN/A
1:50 PM75 °FPassing clouds.16 mph34%30.04 "HgN/A
1:20 PM75 °FSunny.20 mph36%30.04 "Hg10 mi
12:50 PM75 °FPassing clouds.21 mph41%30.04 "HgN/A
12:20 PM73 °FPassing clouds.15 mph47%30.04 "HgN/A
11:50 AM72 °FScattered clouds.15 mph50%30.07 "HgN/A
11:20 AM70 °FPassing clouds.17 mph50%30.07 "HgN/A
10:50 AM70 °FScattered clouds.20 mph53%30.07 "HgN/A
10:20 AM68 °FScattered clouds.14 mph60%30.07 "HgN/A
9:50 AM66 °FPartly sunny.15 mph64%30.07 "HgN/A
9:20 AM64 °FPartly sunny.13 mph73%30.07 "HgN/A
8:50 AM63 °FPartly sunny.12 mph73%30.07 "HgN/A
8:20 AM63 °FPartly sunny.9 mph73%30.04 "HgN/A
7:50 AM59 °FSunny.8 mph88%30.04 "Hg10 mi
7:20 AM57 °FSunny.6 mph88%30.04 "Hg10 mi
6:50 AM55 °FBroken clouds.6 mph88%30.04 "HgN/A
6:20 AM54 °FPassing clouds.5 mph94%30.04 "HgN/A
5:20 AM54 °FClear.5 mph88%30.04 "Hg10 mi
4:50 AM54 °FPassing clouds.5 mph88%30.04 "HgN/A
Weather by CustomWeather, © 2015

See weather overviewHow to use our weather pages